Weather Service Report


828 
ASUS43 KOAX 281110
RWRNE 

WEATHER ROUNDUP FOR NEBRASKA
NATIONAL WEATHER SERVICE OMAHA NE
600 AM CDT TUE APR 28 2015

NOTES: SATELLITE DATA IS BEING USED TO AUGMENT CLOUD COVER ABOVE
       12000 FEET.
       "FAIR" INDICATES FEW OR NO CLOUDS BELOW 12,000 FEET WITH NO
       SIGNIFICANT WEATHER AND/OR OBSTRUCTIONS TO VISIBILITY.

  * THESE STATIONS DO NOT REPORT WEATHER SUCH AS RAIN...SNOW OR FOG.
   
NEZ001>004-019>022-054>056-281200-
NEBRASKA PANHANDLE
  
CITY           SKY/WX    TMP DP  RH WIND       PRES   REMARKS
SCOTTSBLUFF    CLOUDY    43  32  65 E5        30.35R                  
ALLIANCE       CLOUDY    41  40  96 CALM      30.33S                  
CHADRON        CLOUDY    44  42  93 SW5       30.34F                  
KIMBALL        CLOUDY    42  41  96 N3        30.32S                  
SIDNEY         CLOUDY    42  40  92 N7        30.34S                  
$$
 
NEZ057>060-069>072-079>082-281200-
SOUTHWEST NEBRASKA
  
CITY           SKY/WX    TMP DP  RH WIND       PRES   REMARKS
NORTH PLATTE   CLEAR     40  38  93 NW5       30.30S                  
IMPERIAL       PTCLDY    41  37  86 CALM      30.31S                  
LEXINGTON      CLEAR     42  39  90 NW8       30.27S                  
MCCOOK         PTCLDY    44  39  82 CALM      30.27S                  
OGALLALA       MOCLDY    44  40  86 NE6       30.33S                  
$$
 
NEZ005>010-023>029-035>040-094-281200-
NORTH CENTRAL NEBRASKA
  
CITY           SKY/WX    TMP DP  RH WIND       PRES   REMARKS
VALENTINE      CLOUDY    40  38  93 NW6       30.33R                  
AINSWORTH      PTCLDY    40  38  95 NW6       30.31S                  
BROKEN BOW     CLEAR     43  40  89 N17       30.27R                  
O'NEILL        PTCLDY    43  42  97 NW13      30.27S FOG              
ORD            CLEAR     41  39  93 NW9       30.26R                  
THEDFORD       PTCLDY    42  39  91 NW3       30.32S                  
$$
 
NEZ041-046>049-061>064-073>077-083>087-281200-
SOUTH CENTRAL NEBRASKA
  
CITY           SKY/WX    TMP DP  RH WIND       PRES   REMARKS
GRAND ISLAND   CLEAR     42  39  89 NW5       30.25R                  
AURORA         CLEAR     41  39  92 N10       30.24R                  
HASTINGS       PTCLDY    42  39  89 N10       30.23R                  
HEBRON         MOCLDY    37  32  83 CALM      30.21S                  
HOLDREGE       PTCLDY    40  37  90 N6        30.25S                  
KEARNEY *      CLEAR     43  37  81 NW10      30.26R                  
YORK           CLEAR     39  36  87 N6        30.23R WCI  35          
$$
 
NEZ011>018-030>034-042>045-281200-
NORTHEAST NEBRASKA
  
CITY           SKY/WX    TMP DP  RH WIND       PRES   REMARKS
NORFOLK        PTCLDY    44  40  85 NW9       30.23R                  
ALBION         CLEAR     42  38  88 NW9       30.25R FOG              
BLAIR          CLEAR     46  31  55 N5        30.18S                  
COLUMBUS *     CLEAR     45  36  70 N10       30.23S                  
FREMONT        CLEAR     39  34  84 W7        30.20R WCI  34          
TEKAMAH        CLEAR     38  32  79 NW8       30.20R WCI  32          
WAYNE          CLEAR     36  30  80 CALM      30.23R                  
$$

NEZ050>053-065>068-078-088>093-281200-
SOUTHEAST NEBRASKA
  
CITY           SKY/WX    TMP DP  RH WIND       PRES   REMARKS
LINCOLN        CLEAR     40  34  79 CALM      30.21R                  
OMAHA EPPLEY   PTCLDY    39  36  89 N6        30.19R WCI  35          
BEATRICE       PTCLDY    38  34  88 CALM      30.19S                  
FALLS CITY     PTCLDY    42  36  79 NW6       30.17R                  
NEBRASKA CITY  CLEAR     46  30  54 N6        30.18R                  
PLATTSMOUTH    CLEAR     43  34  70 NW6       30.18S                  
$$

NEZ044-045-051>053-067-281200-
OMAHA AREA
  
CITY           SKY/WX    TMP DP  RH WIND       PRES   REMARKS
OMAHA EPPLEY   PTCLDY    39  36  89 N6        30.19R WCI  35          
BLAIR          CLEAR     46  31  55 N5        30.18S                  
FREMONT        CLEAR     39  34  84 W7        30.20R WCI  34          
MILLARD        CLEAR     42  37  82 CALM      30.19S                  
OFFUTT AFB     CLEAR     39  36  89 NW3       30.18R                  
PLATTSMOUTH    CLEAR     43  34  70 NW6       30.18S                  
WAHOO          FAIR      40  33  76 N9        30.20R WCI  34          
$$

Return to Home page


Western Regional Climate Center, wrcc@dri.edu